timestamp,wind_dir_avg,wind_spd_max_dir,wind_spd_avg,wind_spd_gust,battery_voltage,lat,long
2022-11-24 00:04:00+00:00,297.0,303.0,10.38,11.75,12.17,47.59359,-54.27349
2022-11-24 00:14:00+00:00,278.0,277.0,9.93,11.55,12.17,47.59359,-54.27349
2022-11-24 00:24:00+00:00,280.0,284.0,9.37,11.01,12.17,47.59359,-54.27349
2022-11-24 00:34:00+00:00,280.0,279.0,10.75,11.83,12.17,47.59359,-54.27349
2022-11-24 00:44:00+00:00,287.0,287.0,11.32,13.16,12.17,47.59359,-54.27349
2022-11-24 00:54:00+00:00,283.0,282.0,10.98,13.34,12.17,47.59359,-54.27349
2022-11-24 01:04:00+00:00,280.0,277.0,10.77,12.0,12.17,47.59359,-54.27349
2022-11-24 01:14:00+00:00,284.0,280.0,10.12,11.41,12.09,47.59359,-54.27349
2022-11-24 01:24:00+00:00,278.0,271.0,10.16,11.55,12.09,47.59359,-54.27349
2022-11-24 01:34:00+00:00,284.0,290.0,9.15,10.67,12.09,47.59359,-54.27349
2022-11-24 01:44:00+00:00,281.0,275.0,9.68,11.81,12.09,47.59359,-54.27349
2022-11-24 01:54:00+00:00,281.0,287.0,9.9,11.15,12.09,47.59359,-54.27349
2022-11-24 02:04:00+00:00,273.0,275.0,9.01,10.23,12.09,47.59359,-54.27349
2022-11-24 02:14:00+00:00,281.0,292.0,9.71,11.66,12.09,47.59359,-54.27349
2022-11-24 02:24:00+00:00,281.0,277.0,10.17,12.36,12.09,47.59359,-54.27349
2022-11-24 02:34:00+00:00,292.0,295.0,9.75,12.67,12.09,47.59359,-54.27349
2022-11-24 02:44:00+00:00,282.0,287.0,11.51,13.78,12.09,47.59359,-54.27349
2022-11-24 02:54:00+00:00,284.0,284.0,11.25,13.27,12.09,47.59359,-54.27349
2022-11-24 03:04:00+00:00,279.0,284.0,10.95,12.49,12.09,47.59359,-54.27349
2022-11-24 03:14:00+00:00,281.0,292.0,10.19,12.57,12.09,47.59359,-54.27349
2022-11-24 03:24:00+00:00,286.0,292.0,9.58,10.88,12.09,47.59359,-54.27349
2022-11-24 03:34:00+00:00,280.0,268.0,9.96,12.96,12.09,47.59359,-54.27349
2022-11-24 03:44:00+00:00,272.0,279.0,10.4,11.68,12.09,47.59359,-54.27349
2022-11-24 03:54:00+00:00,268.0,270.0,9.76,12.33,12.09,47.59359,-54.27349
2022-11-24 04:04:00+00:00,276.0,276.0,9.65,10.78,12.09,47.59359,-54.27349
2022-11-24 04:14:01+00:00,284.0,286.0,13.69,16.41,12.09,47.59359,-54.27349
2022-11-24 04:24:01+00:00,285.0,281.0,12.71,15.75,12.09,47.59359,-54.27349
2022-11-24 04:34:01+00:00,289.0,284.0,12.46,15.12,12.09,47.59359,-54.27349
2022-11-24 04:44:01+00:00,291.0,282.0,16.93,21.05,12.09,47.59359,-54.27349
2022-11-24 04:54:01+00:00,302.0,293.0,15.74,20.33,12.09,47.59359,-54.27349
2022-11-24 05:04:01+00:00,328.0,322.0,15.92,20.36,12.09,47.59359,-54.27349
2022-11-24 05:14:01+00:00,326.0,325.0,15.79,19.3,12.09,47.59359,-54.27349
2022-11-24 05:24:01+00:00,316.0,320.0,16.09,17.99,12.09,47.59359,-54.27349
2022-11-24 05:34:01+00:00,322.0,307.0,12.5,16.69,12.09,47.59359,-54.27349
2022-11-24 05:44:01+00:00,323.0,306.0,10.87,13.97,12.09,47.59359,-54.27349
2022-11-24 05:54:01+00:00,310.0,303.0,11.64,15.04,12.09,47.59359,-54.27349
2022-11-24 06:04:01+00:00,312.0,314.0,11.9,14.28,12.09,47.59359,-54.27349
2022-11-24 06:14:00+00:00,310.0,314.0,9.35,11.18,12.09,47.59359,-54.27349
2022-11-24 06:24:00+00:00,320.0,322.0,10.31,11.38,12.09,47.59359,-54.27349
2022-11-24 06:34:00+00:00,317.0,311.0,11.08,14.45,12.09,47.59359,-54.27349
2022-11-24 06:44:00+00:00,318.0,314.0,10.24,12.04,12.09,47.59359,-54.27349
2022-11-24 06:54:00+00:00,314.0,317.0,10.15,12.24,12.09,47.59359,-54.27349
2022-11-24 07:04:00+00:00,318.0,319.0,10.03,11.99,12.09,47.59359,-54.27349
2022-11-24 07:14:00+00:00,318.0,328.0,9.51,12.77,12.01,47.59359,-54.27349
2022-11-24 07:24:00+00:00,317.0,314.0,8.87,10.4,12.01,47.59359,-54.27349
2022-11-24 07:34:00+00:00,311.0,308.0,10.05,13.81,12.01,47.59359,-54.27349
2022-11-24 07:44:00+00:00,308.0,314.0,8.42,9.47,12.01,47.59359,-54.27349
2022-11-24 07:54:00+00:00,290.0,293.0,8.66,10.17,12.01,47.59359,-54.27349
2022-11-24 08:04:00+00:00,297.0,301.0,8.94,10.52,12.01,47.59359,-54.27349
2022-11-24 08:14:01+00:00,293.0,287.0,8.71,10.43,12.09,47.59359,-54.27349
2022-11-24 08:24:01+00:00,278.0,278.0,9.43,11.35,12.09,47.59359,-54.27349
2022-11-24 08:34:01+00:00,271.0,261.0,8.6,9.97,12.09,47.59359,-54.27349
2022-11-24 08:44:01+00:00,279.0,286.0,10.79,14.35,12.09,47.59359,-54.27349
2022-11-24 08:54:01+00:00,284.0,280.0,9.38,13.55,12.09,47.59359,-54.27349
2022-11-24 09:04:01+00:00,281.0,279.0,7.98,9.05,12.09,47.59359,-54.27349
2022-11-24 09:14:00+00:00,275.0,281.0,10.3,14.01,12.01,47.59359,-54.27349
2022-11-24 09:24:00+00:00,285.0,285.0,11.97,13.92,12.01,47.59359,-54.27349
2022-11-24 09:34:00+00:00,284.0,287.0,11.07,13.56,12.01,47.59359,-54.27349
2022-11-24 09:44:00+00:00,267.0,274.0,10.93,13.63,12.01,47.59359,-54.27349
2022-11-24 09:54:00+00:00,272.0,264.0,11.29,14.68,12.01,47.59359,-54.27349
2022-11-24 10:04:00+00:00,277.0,271.0,12.34,14.58,12.01,47.59359,-54.27349
2022-11-24 10:14:00+00:00,281.0,289.0,12.72,14.41,12.01,47.59359,-54.27349
2022-11-24 10:24:00+00:00,270.0,274.0,13.42,15.54,12.01,47.59359,-54.27349
2022-11-24 10:34:00+00:00,276.0,281.0,12.08,13.97,12.01,47.59359,-54.27349
2022-11-24 10:44:00+00:00,278.0,282.0,12.11,14.34,12.01,47.59359,-54.27349
2022-11-24 10:54:00+00:00,277.0,278.0,12.3,15.32,12.01,47.59359,-54.27349
2022-11-24 11:04:00+00:00,282.0,287.0,12.93,14.97,12.01,47.59359,-54.27349
2022-11-24 11:14:00+00:00,278.0,281.0,12.55,14.69,12.09,47.59359,-54.27349
2022-11-24 11:24:00+00:00,285.0,297.0,13.06,15.04,12.09,47.59359,-54.27349
2022-11-24 11:34:00+00:00,287.0,297.0,13.03,15.44,12.09,47.59359,-54.27349
2022-11-24 11:44:00+00:00,287.0,289.0,13.28,16.26,12.09,47.59359,-54.27349
2022-11-24 11:54:00+00:00,286.0,294.0,12.62,14.94,12.09,47.59359,-54.27349
2022-11-24 12:04:00+00:00,289.0,287.0,13.27,15.32,12.09,47.59359,-54.27349
2022-11-24 12:14:00+00:00,284.0,282.0,12.83,14.98,13.84,47.59359,-54.27349
2022-11-24 12:24:00+00:00,283.0,279.0,12.42,14.52,13.84,47.59359,-54.27349
2022-11-24 12:34:00+00:00,283.0,293.0,11.91,13.77,13.84,47.59359,-54.27349
2022-11-24 12:44:00+00:00,279.0,284.0,13.92,16.8,13.84,47.59359,-54.27349
2022-11-24 12:54:00+00:00,280.0,279.0,13.5,16.74,13.84,47.59359,-54.27349
2022-11-24 13:04:00+00:00,287.0,297.0,13.71,16.84,13.84,47.59359,-54.27349
2022-11-24 13:14:00+00:00,287.0,290.0,15.39,22.09,13.76,47.59359,-54.27349
2022-11-24 13:24:00+00:00,280.0,283.0,16.41,21.35,13.76,47.59359,-54.27349
2022-11-24 13:34:00+00:00,279.0,282.0,17.24,21.41,13.76,47.59359,-54.27349
2022-11-24 13:44:00+00:00,291.0,288.0,16.94,21.77,13.76,47.59359,-54.27349
2022-11-24 13:54:00+00:00,284.0,296.0,13.23,18.15,13.76,47.59359,-54.27349
2022-11-24 14:04:00+00:00,290.0,290.0,14.1,17.07,13.76,47.59359,-54.27349
2022-11-24 14:14:01+00:00,291.0,284.0,13.74,21.02,14.32,47.59359,-54.27349
2022-11-24 14:24:01+00:00,281.0,274.0,13.87,20.68,14.32,47.59359,-54.27349
2022-11-24 14:34:01+00:00,289.0,286.0,14.67,19.22,14.32,47.59359,-54.27349
2022-11-24 14:44:01+00:00,284.0,284.0,13.5,17.94,14.32,47.59359,-54.27349
2022-11-24 14:54:01+00:00,280.0,288.0,12.45,15.19,14.32,47.59359,-54.27349
2022-11-24 15:04:01+00:00,301.0,307.0,14.5,17.59,14.32,47.59359,-54.27349
2022-11-24 15:14:00+00:00,295.0,290.0,14.18,16.73,14.24,47.59359,-54.27349
2022-11-24 15:24:00+00:00,283.0,280.0,11.61,14.18,14.24,47.59359,-54.27349
2022-11-24 15:34:00+00:00,283.0,279.0,15.17,20.74,14.24,47.59359,-54.27349
2022-11-24 15:44:00+00:00,285.0,286.0,15.31,18.35,14.24,47.59359,-54.27349
2022-11-24 15:54:00+00:00,285.0,291.0,14.25,16.06,14.24,47.59359,-54.27349
2022-11-24 16:04:00+00:00,299.0,286.0,15.62,21.0,14.24,47.59359,-54.27349
2022-11-24 16:14:01+00:00,284.0,278.0,14.19,20.08,14.32,47.59359,-54.27349
2022-11-24 16:24:01+00:00,290.0,295.0,13.48,15.92,14.32,47.59359,-54.27349
2022-11-24 16:34:01+00:00,286.0,287.0,14.34,16.44,14.32,47.59359,-54.27349
2022-11-24 16:44:01+00:00,287.0,285.0,15.83,21.45,14.32,47.59359,-54.27349
2022-11-24 16:54:01+00:00,300.0,300.0,14.4,16.58,14.32,47.59359,-54.27349
2022-11-24 17:04:01+00:00,297.0,296.0,14.58,18.91,14.32,47.59359,-54.27349
2022-11-24 17:14:00+00:00,286.0,292.0,12.65,14.77,13.84,47.59359,-54.27349
2022-11-24 17:24:00+00:00,274.0,279.0,17.76,21.12,13.84,47.59359,-54.27349
2022-11-24 17:34:00+00:00,284.0,291.0,17.76,22.46,13.84,47.59359,-54.27349
2022-11-24 17:44:00+00:00,282.0,288.0,13.51,16.67,13.84,47.59359,-54.27349
2022-11-24 17:54:00+00:00,287.0,290.0,14.0,16.52,13.84,47.59359,-54.27349
2022-11-24 18:04:00+00:00,291.0,301.0,12.65,14.75,13.84,47.59359,-54.27349
2022-11-24 18:14:00+00:00,289.0,294.0,13.92,16.05,14.32,47.59359,-54.27349
2022-11-24 18:24:00+00:00,283.0,293.0,13.41,16.79,14.32,47.59359,-54.27349
2022-11-24 18:34:00+00:00,289.0,284.0,14.21,16.91,14.32,47.59359,-54.27349
2022-11-24 18:44:00+00:00,296.0,308.0,13.48,16.96,14.32,47.59359,-54.27349
2022-11-24 18:54:00+00:00,329.0,332.0,8.86,10.4,14.32,47.59359,-54.27349
2022-11-24 19:04:00+00:00,301.0,311.0,14.68,17.76,14.32,47.59359,-54.27349
2022-11-24 19:14:00+00:00,296.0,293.0,11.33,14.81,13.29,47.59359,-54.27349
2022-11-24 19:24:00+00:00,299.0,303.0,13.01,16.75,13.29,47.59359,-54.27349
2022-11-24 19:34:00+00:00,285.0,288.0,12.37,14.34,13.29,47.59359,-54.27349
2022-11-24 19:44:00+00:00,289.0,285.0,10.72,14.39,13.29,47.59359,-54.27349
2022-11-24 19:54:00+00:00,284.0,281.0,10.59,13.91,13.29,47.59359,-54.27349
2022-11-24 20:04:00+00:00,288.0,296.0,12.6,14.12,13.29,47.59359,-54.27349
2022-11-24 20:14:00+00:00,292.0,301.0,11.21,15.09,12.65,47.59359,-54.27349
2022-11-24 20:24:00+00:00,286.0,283.0,12.62,16.88,12.65,47.59359,-54.27349
2022-11-24 20:34:00+00:00,292.0,299.0,12.38,15.04,12.65,47.59359,-54.27349
2022-11-24 20:44:00+00:00,296.0,301.0,13.04,15.77,12.65,47.59359,-54.27349
2022-11-24 20:54:00+00:00,294.0,297.0,12.8,15.63,12.65,47.59359,-54.27349
2022-11-24 21:04:00+00:00,292.0,293.0,13.93,16.56,12.65,47.59359,-54.27349
2022-11-24 21:14:00+00:00,289.0,288.0,13.34,16.66,12.49,47.59359,-54.27349
2022-11-24 21:24:00+00:00,286.0,294.0,14.68,17.38,12.49,47.59359,-54.27349
2022-11-24 21:34:00+00:00,289.0,290.0,13.5,15.71,12.49,47.59359,-54.27349
2022-11-24 21:44:00+00:00,295.0,300.0,13.45,17.1,12.49,47.59359,-54.27349
2022-11-24 21:54:00+00:00,288.0,288.0,12.25,14.05,12.49,47.59359,-54.27349
2022-11-24 22:04:00+00:00,284.0,300.0,12.71,15.53,12.49,47.59359,-54.27349
2022-11-24 22:14:00+00:00,285.0,282.0,13.32,16.28,12.41,47.59359,-54.27349
2022-11-24 22:24:00+00:00,293.0,293.0,12.92,14.57,12.41,47.59359,-54.27349
2022-11-24 22:34:00+00:00,296.0,289.0,14.37,16.58,12.41,47.59359,-54.27349
2022-11-24 22:44:00+00:00,294.0,293.0,15.49,21.18,12.41,47.59359,-54.27349
2022-11-24 22:54:00+00:00,293.0,291.0,16.26,22.83,12.41,47.59359,-54.27349
2022-11-24 23:04:00+00:00,287.0,274.0,19.4,23.07,12.41,47.59359,-54.27349
2022-11-24 23:14:00+00:00,294.0,301.0,19.66,23.24,12.41,47.59359,-54.27349
2022-11-24 23:24:00+00:00,303.0,298.0,16.81,23.49,12.41,47.59359,-54.27349
2022-11-24 23:34:00+00:00,304.0,291.0,16.58,21.56,12.41,47.59359,-54.27349
2022-11-24 23:44:00+00:00,301.0,300.0,17.5,24.47,12.41,47.59359,-54.27349
2022-11-24 23:54:00+00:00,306.0,317.0,15.46,17.65,12.41,47.59359,-54.27349
